Skip Page Navigation
NASA JPL Caltech
NASA Logo - Jet Propulsion Laboratory + View the NASA Portal
+ Near-Earth Object (NEO) Program
Search JPL
JPL Home Earth Solar System Stars & Galaxies Technology
JPL Solar System Dynamics
BODIES ORBITS EPHEMERIDES TOOLS PHYSICAL DATA DISCOVERY FAQ SITE MAP
JPL Small-Body Database Browser
Search: [ help ]  
8661 Ratzinger (1990 TA13)
Classification: Main-belt Asteroid          SPK-ID: 2008661
Ephemeris | Orbit Diagram | Orbital Elements | Physical Parameters | Discovery Circumstances | Close-Approach Data ]

[ hide orbit diagram ]
Orbit Diagram
Note: Make sure you have Java enabled on your browser to see the applet. This applet is provided as a 3D orbit visualization tool. The applet was implemented using 2-body methods, and hence should not be used for determining accurate long-term trajectories (over several years or decades) or planetary encounter circumstances. For accurate long-term ephemerides, please instead use our Horizons system.
Orbit Viewer

Additional Notes: the orbits shown in the applet are color coded. The planets are white lines, and the asteroid/comet is a blue line. The bright white line indicates the portion of the orbit that is above the ecliptic plane, and the darker portion is below the ecliptic plane. Likewise for the asteroid/comet orbit, the light blue indicates the portion above the ecliptic plane, and the dark blue the portion below the ecliptic plane.

Orbit Viewer applet originally written and kindly provided by Osamu Ajiki (AstroArts), and further modified by Ron Baalke (JPL).


Orbital Elements at Epoch 2456400.5 (2013-Apr-18.0) TDB
Reference: JPL 1 (heliocentric ecliptic J2000)
 Element Value Uncertainty (1-sigma)   Units 
e .03521469579971179 6.6777e-08  
a 3.00445998097532 3.6601e-08 AU
q 2.898658836702866 1.9695e-07 AU
i 10.582782945592 8.334e-06 deg
node 38.24123245356754 4.0146e-05 deg
peri 84.68858160320119 0.00017176 deg
M 51.56099131845358 0.00016093 deg
tp 2456128.062541548921
(2012-Jul-19.56254155)
0.00085149 JED
period 1902.164456781624
5.21
3.4759e-05
9.516e-08
d
yr
n .1892580837143302 3.4584e-09 deg/d
Q 3.110261125247773 3.789e-08 AU
  Orbit Determination Parameters
   # obs. used (total)      952  
   data-arc span      15885 days (43.49 yr)  
   first obs. used      1969-10-16  
   last obs. used      2013-04-13  
   planetary ephem.      DE405  
   SB-pert. ephem.      SB405-CPV-2  
   condition code      0  
   fit RMS      .5537  
   data source      ORB  
   producer      Otto Matic  
   solution date      2013-Apr-29 13:32:11  

Additional Information
 Earth MOID = 1.93894 AU 
 T_jup = 3.225 
[ show covariance matrix ]

Ephemeris | Orbit Diagram | Orbital Elements | Physical Parameters | Discovery Circumstances | Close-Approach Data ]

Physical Parameter Table
Parameter Symbol Value Units Sigma Reference Notes
absolute magnitude H 12.6 mag n/a PDS3 (MPC 31678)  

8661 Ratzinger           Discovered 1990 Oct. 14 by L. D. Schmadel and F. Borngen at Tautenburg.
Joseph Cardinal Ratzinger (b. 1927), German professor of theology, is one of the most authoritative voices in the Vatican. Under his supervision, the Vatican opened its archives in 1998 to enable researchers to investigate judicial errors against Galileo and other medieval scientists. The name was proposed by the first discoverer.
NOTE: some special characters may not display properly (any characters within {} are an attempt to place the proper accent above a character)
Reference: 20000523/MPCPages.arcLast Updated: 2013-03-29

[ show close-approach data ]
Alternate Designations
 1990 TA13 = 1969 US = 1974 TM1 = 1992 CB1 
Ephemeris | Orbit Diagram | Orbital Elements | Physical Parameters | Discovery Circumstances | Close-Approach Data ]
ABOUT SSD CREDITS/AWARDS PRIVACY/COPYRIGHT GLOSSARY LINKS
FirstGov 2013-May-23 01:02 UT
(server date/time)  
NASA Home Page
Site Manager:   Donald K. Yeomans
Webmaster  Alan B. Chamberlin